Home   Weather   Adliswil   Past weeks

Flag for Switzerland Past Weather in Adliswil, Zurich, Switzerland — Yesterday and Last 2 Weeks

Now
35 °F

Chilly.


Feels Like: 35 °F
Forecast: 21 / 42 °F
Wind: No wind

Location: Zuerich-Fluntern

Current Time: Dec 8, 2016 at 9:10:53 pm

Latest Report: Dec 8, 2016 at 8:00 pm


Visibility: N/A

Pressure: 30.60 "Hg

Humidity: 91%

Dew Point: 32 °F

Location of AdliswilLocation

Past Weather in Adliswil — Graph

°F

Adliswil Temperature Yesterday

Maximum temperature yesterday: 30 °F (at 1:00 pm)
Minimum temperature yesterday: 25 °F (at 7:00 am)
Average temperature yesterday: 28 °F

High & Low Weather Summary for the Past Weeks

 TemperatureHumidityPressure
High49 °F (Nov 23, 8:00 pm)100% (Dec 1, 6:00 am)30.68 "Hg (Dec 1, 6:00 am)
Low25 °F (Nov 29, 8:00 am)54% (Nov 28, 1:00 pm)29.87 "Hg (Nov 25, 6:00 am)
Average35 °F85%30.30 "Hg
* Reported Nov 23 7:00 pm — Dec 8 7:00 pm, Adliswil, Weather by CustomWeather, © 2016

Note: Actual official high and low records may vary slightly from our data, if they occured in-between our weather recording intervals... More about our weather records

Advertising

Adliswil Weather History for the Previous 24 Hours

Scroll right to see more
 ConditionsComfort  
Time TempWeatherWind HumidityBarometerVisibility
7:00 pm
Thu, Dec 8
34 °FChilly.1 mph90%30.60 "HgN/A
6:00 pm35 °FChilly.1 mph85%30.59 "HgN/A
5:00 pm36 °FChilly.No wind85%30.59 "HgN/A
4:00 pm40 °FChilly.1 mph73%30.56 "HgN/A
3:00 pm40 °FChilly.2 mph71%30.56 "HgN/A
2:00 pm41 °FQuite cool.1 mph71%30.57 "HgN/A
1:00 pm38 °FPassing clouds.2 mph77%30.60 "HgN/A
12:00 pm34 °FChilly.2 mph87%30.64 "HgN/A
11:00 am32 °FChilly.2 mph90%30.66 "HgN/A
10:00 am30 °FChilly.2 mph98%30.68 "HgN/A
9:00 am29 °FChilly.2 mph97%30.68 "HgN/A
8:00 am28 °FChilly.1 mph100%30.68 "HgN/A
7:00 am29 °FChilly.2 mph97%30.68 "HgN/A
6:00 am28 °FChilly.1 mph100%30.68 "HgN/A
5:00 am28 °FChilly.1 mph100%30.67 "HgN/A
4:00 am29 °FChilly.2 mph100%30.67 "HgN/A
12:00 am29 °FChilly.1 mph99%30.68 "HgN/A
11:00 pm
Wed, Dec 7
30 °FChilly.1 mph100%30.68 "HgN/A
10:00 pm29 °FChilly.3 mph100%30.68 "HgN/A
9:00 pm30 °FChilly.2 mph97%30.68 "HgN/A
Weather by CustomWeather, © 2016

See weather overviewHow to use our weather pages